Location: Bergnerzell
(49.1816°N, 10.2565°E)
Time: 15:26:56
(UTC+00:00)

Meteor 1-24 Rocket - Pass Details

Date: 13 August 2024
Orbit: 790 x 926 km, 81.3° (Epoch: 08 September)

Event Time Altitude Azimuth Distance (km) Brightness Sun altitude
Rises 02:34:38 0° 344° (NNW) 3,513 7.3 -13.6°
Reaches altitude 10° 02:37:08 10° 339° (NNW) 2,586 6.5 -13.3°
Maximum altitude 02:42:48 49° 266° (W) 1,163 4.1 -12.6°
Drops below altitude 10° 02:48:33 10° 193° (SSW) 2,618 5.8 -11.9°
Enters shadow 02:49:13 - 192° (SSW) 2,862 6.0 -11.8°
